Tracking 17921 objects as of 18-January-2017
HD Live streaming from Space Station
objects crossing your sky now

ATLAS CENTAUR DEB

Track ATLAS CENTAUR DEB now!


NORAD ID: 25253
Int'l Code: 1978-068C
Perigee: 876.0 km
Apogee: 35,582.9 km
Inclination: 21.7 °
Period: 640.0 minutes
Semi major axis: 24600 km
RCS: 0.1092 m2 (medium)
Launch date: June 29, 1978
Source: United States (US)
Launch site: AIR FORCE EASTERN TEST RANGE (AFETR)

Note: This is SATELLITE DEBRIS
Your satellite tracking list
Your tracking list is empty





NASA's NSSDC Master Catalog

Two Line Element Set (TLE):
1 25253U 78068C   17016.46625497 -.00000008  00000-0  73854-2 0  9992
2 25253  21.7083 100.9611 7054108 240.3489 221.6501  2.25003185160520
Source of the keplerian elements: AFSPC